カタログに戻る

YAOGAN-40 02A

運用中軍事PO
NORAD 63918·PAYLOAD·🇨🇳 China

打ち上げ May 11, 2025 から Taiyuan Satellite Launch Center

Loading…

次のパス (今後24時間)

TLE

最新Source: Space-Track

元期: Sep 14, 2026, 13:01 UTC

1 63918U 25096A   26257.54237663  .00000100  00000-0  43931-4 0  9992
2 63918  85.9984 147.9614 0002072  96.7604 263.3815 14.12461715 69181

AllMySatでYAOGAN-40 02Aをリアルタイム追跡

Download on the App Store